{"data":{"norad_id":62394,"intl_designator":"2024-247T","name":"CROCUBE","alt_names":[],"object_type":"PAYLOAD","status":"ACTIVE","operator":null,"country":"HRV","launch_date":"2024-12-21","launch_site_code":"AFWTR","launch_vehicle":null,"mission":null,"orbit_class":"UNKNOWN","rcs_meters":null,"size_class":null,"mass_kg":null,"dimensions":null,"purposes":["tech_demo"],"wikipedia_slug":null,"has_3d_model":false,"image_url":null,"decayed_at":null,"tle_current":{"epoch":"2026-05-24T17:36:33.991200Z","epoch_age_seconds":98109,"freshness":"FRESH","line1":"1 62394U 24247T   26144.73372675  .00031105  00000+0  61985-3 0  9991","line2":"2 62394  44.9732  31.5448 0006365 203.6864 156.3734 15.46372478 79719","mean_motion":15.46372478,"eccentricity":0.0006365,"inclination_deg":44.9732,"raan_deg":31.5448,"arg_perigee_deg":203.6864,"mean_anomaly_deg":156.3734,"bstar":0.00061985,"rev_number":7971,"period_min":93.121160683254,"perigee_km":423.01660879588,"apogee_km":431.67999158302,"semimajor_km":6805.4853001894,"source":"CELESTRAK","updated_at":"2026-05-25T13:38:25.536309Z"}}}